When you browse on this site, cookies collect data to enhance your experience and personalize the content and advertising you see.
Visit our Privacy Policy to learn more. By continuing to use the site, you agree to this use of cookies and data.
  • In Hungary
  • List of Countries
  • For 7 days
  • Water Temperature
  • Weather Map
  • News
  • Weather Widgets
  • user-avatar
    Login

    Hourly Weather Anta

    Today, 14 November, Thursday

    Time Temperature Precipitation Wind Pressure Humidity
    00:00 +11°C° 0.6 mm 10 mps 748 mmHg 79%
    01:00 +9°C° 0.6 mm 10 mps 747 mmHg 79%
    02:00 +9°C° 0.6 mm 11 mps 747 mmHg 79%
    03:00 +8°C° 0.8 mm 10 mps 747 mmHg 77%
    04:00 +8°C° 0.8 mm 9 mps 747 mmHg 75%
    05:00 +7°C° 0 mm 9 mps 746 mmHg 79%
    06:00 +7°C° 0.6 mm 9 mps 746 mmHg 77%
    07:00 +8°C° 0.6 mm 9 mps 746 mmHg 74%
    08:00 +8°C° 0.6 mm 10 mps 746 mmHg 72%
    09:00 +8°C° 1 mm 10 mps 746 mmHg 73%
    10:00 +9°C° 1 mm 11 mps 745 mmHg 75%
    11:00 +9°C° 1 mm 12 mps 744 mmHg 76%
    12:00 +9°C° 0.6 mm 12 mps 744 mmHg 74%
    13:00 +9°C° 0.6 mm 12 mps 744 mmHg 72%
    14:00 +9°C° 0.6 mm 13 mps 744 mmHg 71%
    15:00 +9°C° 0.2 mm 12 mps 745 mmHg 71%
    16:00 +8°C° 0.2 mm 11 mps 745 mmHg 72%
    17:00 +8°C° 0.2 mm 10 mps 745 mmHg 72%
    18:00 +7°C° 0.1 mm 9 mps 746 mmHg 73%
    19:00 +7°C° 0.1 mm 9 mps 746 mmHg 73%
    20:00 +7°C° 0.1 mm 8 mps 747 mmHg 73%
    21:00 +6°C° 0.1 mm 8 mps 747 mmHg 73%
    22:00 +6°C° 0.1 mm 8 mps 747 mmHg 73%
    23:00 +6°C° 0.1 mm 8 mps 747 mmHg 73%

    Tomorrow, 15 November, Friday

    Time Temperature Precipitation Wind Pressure Humidity
    00:00 +5°C° 0.2 mm 7 mps 747 mmHg 73%
    01:00 +5°C° 0.2 mm 7 mps 747 mmHg 74%
    02:00 +5°C° 0.2 mm 7 mps 747 mmHg 74%
    03:00 +4°C° 0.2 mm 7 mps 747 mmHg 74%
    04:00 +4°C° 0.2 mm 7 mps 747 mmHg 75%
    05:00 +4°C° 0.2 mm 6 mps 747 mmHg 76%
    06:00 +5°C° 0.1 mm 7 mps 747 mmHg 74%
    07:00 +5°C° 0.1 mm 7 mps 748 mmHg 72%
    08:00 +6°C° 0.1 mm 7 mps 748 mmHg 71%
    09:00 +8°C° 0 mm 7 mps 748 mmHg 65%
    10:00 +9°C° 0 mm 7 mps 748 mmHg 59%
    11:00 +10°C° 0 mm 7 mps 748 mmHg 54%
    12:00 +10°C° 0.1 mm 7 mps 748 mmHg 53%
    13:00 +10°C° 0.1 mm 7 mps 747 mmHg 53%
    14:00 +10°C° 0.1 mm 8 mps 747 mmHg 52%
    15:00 +9°C° 0 mm 7 mps 747 mmHg 58%
    16:00 +8°C° 0 mm 7 mps 748 mmHg 64%
    17:00 +5°C° 0 mm 7 mps 748 mmHg 69%
    18:00 +5°C° 0 mm 7 mps 748 mmHg 72%
    19:00 +5°C° 0 mm 6 mps 749 mmHg 74%
    20:00 +4°C° 0 mm 6 mps 749 mmHg 77%
    21:00 +4°C° 0 mm 6 mps 750 mmHg 78%
    22:00 +3°C° 0 mm 5 mps 750 mmHg 80%
    23:00 +3°C° 0 mm 5 mps 750 mmHg 82%

    Day after tomorrow, 16 November, Saturday

    Time Temperature Precipitation Wind Pressure Humidity
    00:00 +4°C° 0 mm 4 mps 750 mmHg 83%
    01:00 +4°C° 0 mm 4 mps 750 mmHg 83%
    02:00 +3°C° 0 mm 3 mps 751 mmHg 84%
    03:00 +3°C° 0 mm 3 mps 751 mmHg 85%
    04:00 +3°C° 0 mm 3 mps 751 mmHg 85%
    05:00 +3°C° 0 mm 3 mps 751 mmHg 86%
    06:00 +4°C° 0 mm 3 mps 752 mmHg 83%
    07:00 +6°C° 0 mm 2 mps 752 mmHg 80%
    08:00 +7°C° 0 mm 2 mps 753 mmHg 77%
    09:00 +8°C° 0 mm 2 mps 753 mmHg 71%
    10:00 +10°C° 0 mm 2 mps 753 mmHg 65%
    11:00 +13°C° 0 mm 2 mps 753 mmHg 59%
    12:00 +13°C° 0 mm 2 mps 753 mmHg 59%
    13:00 +12°C° 0 mm 3 mps 752 mmHg 59%
    14:00 +12°C° 0 mm 3 mps 752 mmHg 60%
    15:00 +11°C° 0 mm 3 mps 752 mmHg 64%
    16:00 +10°C° 0 mm 3 mps 752 mmHg 69%
    17:00 +9°C° 0 mm 2 mps 753 mmHg 74%
    18:00 +9°C° 0 mm 2 mps 753 mmHg 73%
    19:00 +9°C° 0 mm 2 mps 753 mmHg 72%
    20:00 +10°C° 0 mm 1 mps 752 mmHg 72%
    21:00 +9°C° 0 mm 2 mps 752 mmHg 72%
    22:00 +9°C° 0 mm 2 mps 752 mmHg 73%
    23:00 +9°C° 0 mm 3 mps 751 mmHg 73%

    17 November, Sunday

    Time Temperature Precipitation Wind Pressure Humidity
    00:00 +9°C° 0.1 mm 3 mps 751 mmHg 75%
    01:00 +9°C° 0.1 mm 3 mps 750 mmHg 77%
    02:00 +8°C° 0.1 mm 4 mps 750 mmHg 78%
    03:00 +9°C° 0.1 mm 3 mps 750 mmHg 80%
    04:00 +9°C° 0.1 mm 3 mps 750 mmHg 81%
    05:00 +9°C° 0.1 mm 3 mps 750 mmHg 82%
    06:00 +10°C° 0 mm 3 mps 750 mmHg 83%
    07:00 +10°C° 0 mm 3 mps 751 mmHg 84%
    08:00 +11°C° 0 mm 4 mps 751 mmHg 85%
    09:00 +10°C° 0.1 mm 5 mps 751 mmHg 80%
    10:00 +12°C° 0.1 mm 5 mps 751 mmHg 74%
    11:00 +13°C° 0.1 mm 6 mps 751 mmHg 69%
    12:00 +13°C° 0 mm 6 mps 751 mmHg 67%
    13:00 +13°C° 0 mm 6 mps 751 mmHg 65%
    14:00 +13°C° 0 mm 6 mps 750 mmHg 63%
    15:00 +12°C° 0 mm 5 mps 751 mmHg 68%
    16:00 +11°C° 0 mm 4 mps 751 mmHg 72%
    17:00 +10°C° 0 mm 4 mps 751 mmHg 77%
    18:00 +8°C° 0 mm 4 mps 751 mmHg 80%
    19:00 +9°C° 0 mm 3 mps 752 mmHg 82%
    20:00 +9°C° 0 mm 3 mps 752 mmHg 85%
    21:00 +8°C° 0 mm 3 mps 752 mmHg 85%
    22:00 +8°C° 0 mm 3 mps 752 mmHg 86%
    23:00 +8°C° 0 mm 2 mps 752 mmHg 86%

    18 November, Monday

    Time Temperature Precipitation Wind Pressure Humidity
    00:00 +8°C° 0 mm 2 mps 752 mmHg 86%
    01:00 +8°C° 0 mm 2 mps 752 mmHg 86%
    02:00 +8°C° 0 mm 2 mps 752 mmHg 86%
    03:00 +8°C° 0 mm 2 mps 752 mmHg 85%
    04:00 +8°C° 0 mm 2 mps 752 mmHg 85%
    05:00 +8°C° 0 mm 2 mps 752 mmHg 84%
    06:00 +10°C° 0 mm 1 mps 753 mmHg 83%
    07:00 +10°C° 0 mm 1 mps 753 mmHg 82%
    08:00 +10°C° 0 mm 1 mps 753 mmHg 81%
    09:00 +12°C° 0 mm 1 mps 753 mmHg 73%
    10:00 +13°C° 0 mm 1 mps 753 mmHg 65%
    11:00 +15°C° 0 mm 1 mps 753 mmHg 57%
    12:00 +15°C° 0 mm 1 mps 753 mmHg 55%
    13:00 +15°C° 0 mm 1 mps 752 mmHg 52%
    14:00 +14°C° 0 mm 1 mps 752 mmHg 50%
    15:00 +13°C° 0 mm 1 mps 752 mmHg 56%
    16:00 +12°C° 0 mm 1 mps 752 mmHg 63%
    17:00 +9°C° 0 mm 0 mps 752 mmHg 70%
    18:00 +10°C° 0 mm 1 mps 752 mmHg 70%
    19:00 +9°C° 0 mm 2 mps 752 mmHg 70%
    20:00 +9°C° 0 mm 2 mps 753 mmHg 70%
    21:00 +9°C° 0 mm 3 mps 752 mmHg 69%
    22:00 +9°C° 0 mm 3 mps 752 mmHg 68%
    23:00 +10°C° 0 mm 4 mps 752 mmHg 67%

    19 November, Tuesday

    Time Temperature Precipitation Wind Pressure Humidity
    00:00 +10°C° 0.2 mm 4 mps 752 mmHg 69%
    01:00 +9°C° 0.2 mm 5 mps 751 mmHg 71%
    02:00 +9°C° 0.2 mm 5 mps 751 mmHg 73%
    03:00 +9°C° 0.9 mm 6 mps 750 mmHg 77%
    04:00 +8°C° 0.9 mm 6 mps 750 mmHg 81%
    05:00 +8°C° 0.9 mm 7 mps 749 mmHg 85%
    06:00 +8°C° 2.4 mm 7 mps 749 mmHg 86%
    07:00 +8°C° 2.4 mm 7 mps 749 mmHg 88%
    08:00 +8°C° 2.4 mm 7 mps 749 mmHg 89%
    09:00 +8°C° 2.3 mm 7 mps 749 mmHg 89%
    10:00 +8°C° 2.3 mm 7 mps 748 mmHg 89%
    11:00 +8°C° 2.3 mm 7 mps 748 mmHg 89%
    12:00 +9°C° 0.6 mm 6 mps 748 mmHg 89%
    13:00 +9°C° 0.6 mm 6 mps 747 mmHg 89%
    14:00 +10°C° 0.6 mm 6 mps 747 mmHg 89%
    15:00 +10°C° 0.3 mm 5 mps 747 mmHg 90%
    16:00 +10°C° 0.3 mm 5 mps 747 mmHg 91%
    17:00 +10°C° 0.3 mm 5 mps 747 mmHg 91%
    18:00 +11°C° 0.1 mm 4 mps 747 mmHg 90%
    19:00 +11°C° 0.1 mm 4 mps 747 mmHg 89%
    20:00 +10°C° 0.1 mm 4 mps 747 mmHg 88%
    21:00 +10°C° 0.1 mm 4 mps 746 mmHg 89%
    22:00 +9°C° 0.1 mm 5 mps 746 mmHg 89%
    23:00 +9°C° 0.1 mm 5 mps 746 mmHg 90%
    Show more